Погода в Нувара-Элии

Шри-Ланка     6°58′13″N   80°45′14″E
темп.,
°C
ветер,
м/с
пор.,
м/с
влажн.,
%
обл.,
%
осадки,
мм/ч
давл.,
гПа
погр.,
м
25 мая, ср
ср2523:30+17зюз2396100 4.5 1015134
02:30+17зюз2397100 3.8 1013175
05:30+17юз2393100 5.6 101378
08:30+20з237999 0.8 1014253
11:30+24зсз336379 0.9 10131249
14:30+22зсз227798 3.4 1011782
17:30+20зсз2391100 5.1 1012246
20:30+17юз2297100 0.4 101450
26 мая, чт
чт2623:30+16юз229246 0.4 101535
02:30+16юз239581 0.0 101366
05:30+17зюз3397100 0.0 1014102
08:30+20зюз237737 0.0 1015352
11:30+24з3360100 0.1 10131202
14:30+24з336023 0.5 10111376
17:30+20зюз23759 0.6 1012221
20:30+16юз337690 0.0 101542
27 мая, пт
пт2723:30+16юз349451 0.0 101592
02:30+16зюз349642 0.0 1013118
05:30+14юз339153 0.0 101460
08:30+20з346595 0.0 1015368
11:30+24з3355100 0.0 1013931
14:30+24з346010 0.0 10101309
17:30+20з33760 0.0 1012279
20:30+16юз33926 0.0 101451
28 мая, сб
сб2823:30+15зюз339297 0.0 101466
02:30+16зюз349573 0.0 1012125
05:30+15юз339056 0.0 101351
08:30+21з3473100 0.0 1013388
11:30+24з33619 0.0 10121149
14:30+23з3463100 0.4 10101253
17:30+20з2380100 0.8 1012334
20:30+16юз3494100 0.0 101494
29 мая, вс
вс2923:30+16зюз349645 0.0 1014122
02:30+16зюз349644 0.0 1012124
05:30+16зюз3495100 0.0 1013111
08:30+20з347649 0.0 1014423
11:30+24з3462100 0.0 10121236
14:30+23з346299 0.8 10101238
17:30+20з347769 1.0 1012436
20:30+16юз349199 0.0 101485